Gillette Campbell County Airport
KGCC : now visible

Airfield :











YOU CAN JOIN US ON...

 
LOGIN :

Register | Disclaimer

   EN    FR    IT 

 









Legend :    VFR   Marginal VFR   IFR   Intensive IFR   Very Intensive IFR
Visi :
Ceiling :
>= 8 km
>= 3000ft
5 to 8 km
1000 to 3000 ft
1500m to 5 km
500 to 1000 ft
800 to 1500m
200 to 500 ft
< 800m
< 200 ft
Symbols :   Thunderstorms  Fog  Heavy snow  Heavy precipitations  Wind > 20 kt






- Airport Elevation : 4365 ft


KGCC - Gillette Campbell County

CURRENT METAR :
  • 220953Z AUTO 17013KT 10SM CLR M03/M06 A2979 RMK AO2 SLP103 T10281056

EXPIRED METARs :
  • 220853Z AUTO 17008KT 10SM CLR M02/M06 A2982 RMK AO2 SLP115 T10221056 58025
  • 220753Z AUTO 15003KT 10SM CLR M02/M06 A2985 RMK AO2 SLP130 T10221056

TAF KGCC
Valid from the 22 at 06:00 until the 23 at 06:00 UTC


220520Z 2206/2306 17011KT P6SM SKC
FM221800 24013KT P6SM SCT250
FM222000 31011KT P6SM BKN250
FM230300 32015KT P6SM OVC025
KZDV FIR / North America



MET'MAP, your aeronautical weather chart ! - Copyright ORBIFLY December 2007 - Disclaimer

ORBIFLY MET'MAP TEAM :

Programming & Development : Alexandra Zaïnal
Concept & original design : Baudouin d'Aumeries
Assistance for programming : Marc-Olivier Méhu
Technical & hardware support : Manuel Goepfert

Contact : metmap@orbifly.com




SOURCES & CREDITS :

   NOAA       Earth
Advisory